• In Hungary
  • List of Countries
  • For 7 days
  • Water Temperature
  • Satellite Maps
  • Weather Map
  • News
  • Weather Widgets
  • user-avatar
    Login

    Hourly Weather Kozlovka

    Today, 26 April, Thursday

    Time Temperature Precipitation Wind Pressure Humidity
    00:00 +8°C° 0 mm 3 mps 736 mmHg 88%
    01:00 +8°C° 0 mm 3 mps 736 mmHg 89%
    02:00 +8°C° 0 mm 3 mps 735 mmHg 90%
    03:00 +7°C° 0 mm 2 mps 735 mmHg 89%
    04:00 +7°C° 0.2 mm 2 mps 735 mmHg 89%
    05:00 +8°C° 0.2 mm 3 mps 734 mmHg 90%
    06:00 +8°C° 0.2 mm 3 mps 734 mmHg 90%
    07:00 +8°C° 0.4 mm 3 mps 734 mmHg 90%
    08:00 +8°C° 0.4 mm 4 mps 733 mmHg 89%
    09:00 +8°C° 0 mm 4 mps 733 mmHg 88%
    10:00 +9°C° 0.1 mm 5 mps 732 mmHg 86%
    11:00 +10°C° 0.1 mm 5 mps 732 mmHg 84%
    12:00 +11°C° 0.1 mm 6 mps 732 mmHg 82%
    13:00 +12°C° 0.4 mm 7 mps 732 mmHg 74%
    14:00 +13°C° 0.4 mm 8 mps 732 mmHg 67%
    15:00 +15°C° 0.4 mm 9 mps 732 mmHg 59%
    16:00 +13°C° 0.1 mm 9 mps 732 mmHg 60%
    17:00 +12°C° 0.1 mm 9 mps 733 mmHg 61%
    18:00 +11°C° 0.1 mm 9 mps 734 mmHg 63%
    19:00 +10°C° 0 mm 8 mps 735 mmHg 65%
    20:00 +8°C° 0 mm 7 mps 736 mmHg 68%
    21:00 +7°C° 0 mm 6 mps 737 mmHg 71%
    22:00 +7°C° 0 mm 6 mps 737 mmHg 72%
    23:00 +7°C° 0 mm 6 mps 738 mmHg 72%

    Tomorrow, 27 April, Friday

    Time Temperature Precipitation Wind Pressure Humidity
    00:00 +6°C° 0 mm 5 mps 738 mmHg 73%
    01:00 +6°C° 0 mm 5 mps 739 mmHg 75%
    02:00 +6°C° 0 mm 4 mps 739 mmHg 78%
    03:00 +5°C° 0 mm 4 mps 739 mmHg 80%
    04:00 +5°C° 0 mm 4 mps 740 mmHg 82%
    05:00 +5°C° 0 mm 4 mps 740 mmHg 83%
    06:00 +5°C° 0 mm 4 mps 741 mmHg 84%
    07:00 +6°C° 0 mm 4 mps 741 mmHg 78%
    08:00 +8°C° 0 mm 4 mps 741 mmHg 72%
    09:00 +10°C° 0 mm 4 mps 742 mmHg 65%
    10:00 +12°C° 0 mm 4 mps 742 mmHg 59%
    11:00 +13°C° 0 mm 4 mps 742 mmHg 53%
    12:00 +14°C° 0 mm 4 mps 742 mmHg 47%
    13:00 +14°C° 0 mm 4 mps 742 mmHg 48%
    14:00 +14°C° 0 mm 4 mps 741 mmHg 48%
    15:00 +15°C° 0 mm 4 mps 741 mmHg 48%
    16:00 +14°C° 0.3 mm 3 mps 741 mmHg 54%
    17:00 +13°C° 0.3 mm 3 mps 741 mmHg 59%
    18:00 +13°C° 0.3 mm 2 mps 741 mmHg 65%
    19:00 +13°C° 0.2 mm 2 mps 741 mmHg 70%
    20:00 +12°C° 0.2 mm 2 mps 741 mmHg 75%
    21:00 +10°C° 0.2 mm 2 mps 742 mmHg 80%
    22:00 +9°C° 0.2 mm 2 mps 742 mmHg 82%
    23:00 +9°C° 0.2 mm 2 mps 742 mmHg 84%

    Day after tomorrow, 28 April, Saturday

    Time Temperature Precipitation Wind Pressure Humidity
    00:00 +8°C° 0.2 mm 2 mps 742 mmHg 85%
    01:00 +8°C° 0 mm 2 mps 742 mmHg 86%
    02:00 +7°C° 0 mm 2 mps 742 mmHg 86%
    03:00 +7°C° 0 mm 2 mps 742 mmHg 86%
    04:00 +7°C° 0 mm 2 mps 742 mmHg 85%
    05:00 +6°C° 0 mm 2 mps 742 mmHg 84%
    06:00 +5°C° 0 mm 3 mps 742 mmHg 83%
    07:00 +8°C° 0 mm 3 mps 743 mmHg 77%
    08:00 +9°C° 0 mm 3 mps 743 mmHg 71%
    09:00 +11°C° 0 mm 4 mps 743 mmHg 64%
    10:00 +12°C° 0.1 mm 4 mps 744 mmHg 59%
    11:00 +13°C° 0.1 mm 5 mps 744 mmHg 54%
    12:00 +14°C° 0.1 mm 5 mps 744 mmHg 49%
    13:00 +14°C° 0.1 mm 5 mps 744 mmHg 48%
    14:00 +14°C° 0.1 mm 6 mps 744 mmHg 46%
    15:00 +15°C° 0.1 mm 6 mps 744 mmHg 44%
    16:00 +14°C° 0.1 mm 6 mps 744 mmHg 47%
    17:00 +14°C° 0.1 mm 5 mps 745 mmHg 49%
    18:00 +13°C° 0.1 mm 4 mps 745 mmHg 52%
    19:00 +12°C° 0 mm 4 mps 745 mmHg 57%
    20:00 +10°C° 0 mm 3 mps 746 mmHg 62%
    21:00 +9°C° 0 mm 3 mps 746 mmHg 67%
    22:00 +8°C° 0 mm 3 mps 746 mmHg 69%
    23:00 +8°C° 0 mm 3 mps 747 mmHg 71%

    29 April, Sunday

    Time Temperature Precipitation Wind Pressure Humidity
    00:00 +7°C° 0 mm 3 mps 747 mmHg 73%
    01:00 +7°C° 0 mm 3 mps 747 mmHg 74%
    02:00 +6°C° 0 mm 2 mps 747 mmHg 74%
    03:00 +6°C° 0 mm 2 mps 748 mmHg 75%
    04:00 +6°C° 0 mm 2 mps 748 mmHg 75%
    05:00 +6°C° 0 mm 2 mps 748 mmHg 75%
    06:00 +6°C° 0 mm 2 mps 748 mmHg 75%
    07:00 +8°C° 0.1 mm 3 mps 748 mmHg 72%
    08:00 +9°C° 0.1 mm 3 mps 748 mmHg 70%
    09:00 +10°C° 0.1 mm 3 mps 747 mmHg 68%
    10:00 +11°C° 0.9 mm 4 mps 747 mmHg 70%
    11:00 +11°C° 0.9 mm 4 mps 746 mmHg 73%
    12:00 +12°C° 0.9 mm 4 mps 746 mmHg 75%
    13:00 +13°C° 0.1 mm 5 mps 745 mmHg 72%
    14:00 +15°C° 0.1 mm 5 mps 745 mmHg 69%
    15:00 +17°C° 0.1 mm 5 mps 744 mmHg 66%
    16:00 +17°C° 0.3 mm 5 mps 744 mmHg 66%
    17:00 +17°C° 0.3 mm 5 mps 744 mmHg 67%
    18:00 +19°C° 0.3 mm 4 mps 744 mmHg 68%
    19:00 +17°C° 0.2 mm 4 mps 744 mmHg 73%
    20:00 +15°C° 0.2 mm 4 mps 744 mmHg 79%
    21:00 +13°C° 0.2 mm 4 mps 744 mmHg 85%
    22:00 +13°C° 0.1 mm 3 mps 744 mmHg 87%
    23:00 +13°C° 0.1 mm 3 mps 744 mmHg 89%

    30 April, Monday

    Time Temperature Precipitation Wind Pressure Humidity
    00:00 +12°C° 0.1 mm 3 mps 744 mmHg 92%
    01:00 +12°C° 0 mm 3 mps 744 mmHg 92%
    02:00 +12°C° 0 mm 3 mps 744 mmHg 93%
    03:00 +11°C° 0 mm 3 mps 744 mmHg 93%
    04:00 +11°C° 0 mm 3 mps 745 mmHg 94%
    05:00 +12°C° 0 mm 2 mps 745 mmHg 94%
    06:00 +12°C° 0 mm 2 mps 745 mmHg 94%
    07:00 +13°C° 0 mm 3 mps 745 mmHg 89%
    08:00 +16°C° 0 mm 3 mps 745 mmHg 83%
    09:00 +18°C° 0 mm 3 mps 745 mmHg 77%
    10:00 +19°C° 0.2 mm 3 mps 745 mmHg 71%
    11:00 +20°C° 0.2 mm 3 mps 745 mmHg 66%
    12:00 +22°C° 0.2 mm 4 mps 745 mmHg 60%
    13:00 +22°C° 0.5 mm 4 mps 744 mmHg 60%
    14:00 +22°C° 0.5 mm 4 mps 744 mmHg 60%
    15:00 +23°C° 0.5 mm 4 mps 744 mmHg 59%
    16:00 +22°C° 1 mm 4 mps 744 mmHg 65%
    17:00 +21°C° 1 mm 3 mps 744 mmHg 71%
    18:00 +19°C° 1 mm 3 mps 744 mmHg 77%
    19:00 +18°C° 0.4 mm 2 mps 744 mmHg 81%
    20:00 +17°C° 0.4 mm 2 mps 745 mmHg 85%
    21:00 +16°C° 0.4 mm 1 mps 745 mmHg 89%
    22:00 +16°C° 0 mm 2 mps 745 mmHg 88%
    23:00 +15°C° 0 mm 2 mps 745 mmHg 88%

    1 May, Tuesday

    Time Temperature Precipitation Wind Pressure Humidity
    00:00 +15°C° 0 mm 2 mps 745 mmHg 88%
    01:00 +14°C° 0 mm 2 mps 745 mmHg 88%
    02:00 +14°C° 0 mm 2 mps 745 mmHg 88%
    03:00 +13°C° 0 mm 2 mps 745 mmHg 88%
    04:00 +13°C° 0 mm 2 mps 746 mmHg 88%
    05:00 +13°C° 0 mm 2 mps 746 mmHg 88%
    06:00 +13°C° 0 mm 2 mps 746 mmHg 89%
    07:00 +14°C° 0 mm 3 mps 746 mmHg 83%
    08:00 +17°C° 0 mm 3 mps 746 mmHg 77%
    09:00 +19°C° 0 mm 4 mps 746 mmHg 71%
    10:00 +20°C° 0 mm 4 mps 746 mmHg 65%
    11:00 +21°C° 0 mm 5 mps 746 mmHg 58%
    12:00 +23°C° 0 mm 5 mps 746 mmHg 52%
    13:00 +23°C° 0 mm 6 mps 746 mmHg 50%
    14:00 +24°C° 0 mm 6 mps 746 mmHg 48%
    15:00 +26°C° 0 mm 6 mps 746 mmHg 46%
    16:00 +25°C° 0 mm 5 mps 746 mmHg 50%
    17:00 +25°C° 0 mm 4 mps 746 mmHg 54%
    18:00 +24°C° 0 mm 3 mps 746 mmHg 57%
    19:00 +21°C° 0 mm 3 mps 746 mmHg 62%
    20:00 +20°C° 0 mm 3 mps 746 mmHg 66%
    21:00 +18°C° 0 mm 3 mps 746 mmHg 71%
    22:00 +17°C° 0 mm 3 mps 746 mmHg 72%
    23:00 +17°C° 0 mm 3 mps 746 mmHg 74%
    Show more